Location: ??????????
(54.8537°N, 38.8755°E)
Time: 01:41:50
(UTC+00:00)

Vanguard 2 Rocket - Pass Details

Date: 20 September 2024
Orbit: 553 x 3298 km, 32.9° (Epoch: 10 October)

Event Time Altitude Azimuth Distance (km) Brightness Sun altitude
Rises 20:34:37 0° 190° (S) 3,840 - -33.8°
Reaches altitude 10° 20:40:01 10° 156° (SSE) 3,505 - -34.0°
Maximum altitude 20:42:05 11° 142° (SE) 3,667 - -34.0°
Drops below altitude 10° 20:44:21 10° 129° (SE) 3,997 - -34.1°
Exits shadow 20:50:11 - 107° (ESE) 5,248 10.6 -34.2°
Sets 20:52:38 0° 101° (E) 5,854 10.9 -34.3°
